FO-29
1 24278U 96046B 13248.67952958 -.00000023 00000-0 15188-4 0 1925
2 24278 098.5462 296.4465 0349670 315.6674 156.2303 13.53005132842193
SO-33
1 25509U 98061B 13247.69013094 .00000395 00000-0 66325-4 0 5768
2 25509 031.4328 337.4679 0351030 133.9934 351.8813 14.29115051776274
RS-22
1 27939U 03042A 13248.59824117 .00000344 00000-0 73134-4 0 7401
2 27939 097.7986 072.2573 0012509 296.0868 063.9039 14.64558494531065
VO-52
1 28650U 05017B 13248.08581697 .00000909 00000-0 11442-3 0 5175
2 28650 097.5671 262.5916 0025820 021.4112 014.1922 14.84100664450931
HO-68
1 36122U 09072B 13248.61724548 -.00000044 00000-0 00000 0 0 8792
2 36122 100.2981 303.6072 0007562 168.4638 191.6647 13.16306634178995
UO-11
1 14781U 84021B 13248.17235140 .00000311 00000-0 46939-4 0 2765
2 14781 097.8943 308.3096 0009275 038.0120 322.1745 14.80998342585773
AO-16
1 20439U 90005D 13248.50423633 .00000083 00000-0 46619-4 0 8334
2 20439 098.4756 186.6834 0009619 281.5761 183.4304 14.32201877233736
LO-19
1 20442U 90005G 13248.79562010 .00000086 00000-0 47433-4 0 7700
2 20442 098.4454 188.4982 0010627 269.5055 119.8084 14.32411211233971
AO-27
1 22825U 93061C 13248.07725602 .00000068 00000-0 43717-4 0 4721
2 22825 098.6243 191.2788 0009283 059.7288 068.7253 14.29586659 40044
IO-26
1 22826U 93061D 13247.83640358 .00000085 00000-0 50090-4 0 2278
2 22826 098.6185 191.3109 0009736 053.7081 359.2319 14.29873291 40149
GO-32
1 25397U 98043D 13247.76735812 .00000029 00000-0 31216-4 0 1547
2 25397 098.4251 212.0994 0002362 083.2708 344.5490 14.23356965787268
NO-44
1 26931U 01043C 13247.56429242 .00000051 00000-0 51889-4 0 4110
2 26931 067.0525 054.8791 0007694 269.0562 149.9062 14.29954483622772
SO-50
1 27607U 02058C 13248.78997888 .00000482 00000-0 95045-4 0 1622
2 27607 064.5589 018.7356 0036378 134.4042 024.2233 14.73060577575582
CO-55
1 27844U 03031E 13247.75994337 .00000133 00000-0 81158-4 0 7336
2 27844 098.7026 255.6801 0009957 026.8456 060.0157 14.21263655528039
CO-57
1 27848U 03031J 13247.77609009 .00000120 00000-0 75409-4 0 6776
2 27848 098.7113 255.2507 0009979 032.6983 055.2640 14.20983803527960
AO-51
1 28375U 04025K 13247.81580845 .00000112 00000-0 46152-4 0 6467
2 28375 098.2101 200.1129 0084562 134.7437 281.1288 14.41154115482806
CP3
1 31129U 07012N 13248.71646727 .00000453 00000-0 11130-3 0 5463
2 31129 097.9050 236.8403 0100376 175.9751 238.9680 14.53788286338693
CO-65
1 32785U 08021C 13247.80497797 .00000910 00000-0 11521-3 0 7298
2 32785 097.7428 303.0437 0015014 051.7272 011.9797 14.84081438289687
PRISM
1 33493U 09002B 13248.73575370 .00001940 00000-0 22595-3 0 1495
2 33493 098.2256 048.3905 0016931 292.8761 067.0663 14.86415151249885
SOHLA-1
1 33496U 09002E 13248.16891135 .00000258 00000-0 50954-4 0 1396
2 33496 098.1431 004.0151 0007653 074.6357 024.0096 14.70360619247626
SO-67
1 35870U 09049F 13248.74380147 .00004175 00000-0 15589-3 0 3988
2 35870 097.1878 274.6348 0003484 060.7390 029.7829 15.27907179220552
TISAT-1
1 36799U 10035E 13248.72073001 .00001505 00000-0 18883-3 0 4190
2 36799 098.0322 333.8932 0014852 161.6878 198.4872 14.83615043170516
STUDSAT
1 36801U 10035G 13247.49833319 .00004329 00000-0 46217-3 0 6767
2 36801 098.0450 336.5782 0012343 145.2925 342.8455 14.89299848170518
ALMASAT-1
1 38078U 12006B 13248.75186192 .00014747 00000-0 36864-3 0 5878
2 38078 069.4750 013.5223 0678833 043.4328 321.8227 14.28461782 80730
XATCOBEO
1 38082U 12006F 13248.69091264 .00048596 34596-5 87378-3 0 4675
2 38082 069.4736 338.8056 0533852 024.1780 338.3462 14.66043634 81688
SOMP
1 39135U 13015F 13248.61748311 .00002637 00000-0 21973-3 0 2918
2 39135 064.8799 315.9168 0004076 215.8137 293.8903 15.00791873 20897
CUBEBUG-1
1 39153U 13018D 13248.71167398 .00000797 00000-0 12145-3 0 3784
2 39153 098.0690 324.4451 0018201 180.8809 179.2373 14.76587752 19569
ESTCUBE-1
1 39161U 13021C 13248.67332303 .00000625 00000-0 11479-3 0 3398
2 39161 098.1244 326.4938 0009046 213.8515 146.2142 14.69093240 17814
NOAA-10
1 16969U 86073A 13248.15176021 .00000024 00000-0 27201-4 0 4847
2 16969 098.5413 274.2316 0012169 017.1607 026.7357 14.27661938403351
NOAA-11
1 19531U 88089A 13248.34969971 .00000043 00000-0 44496-4 0 4980
2 19531 098.7066 329.4780 0011584 038.2307 003.1866 14.15026702287461
NOAA-12
1 21263U 91032A 13248.49008583 .00000002 00000-0 19572-4 0 9635
2 21263 098.6932 273.2240 0013332 350.8842 146.4581 14.25584555159991
MET-3/5
1 21655U 91056A 13248.77541192 -.00000396 00000-0 -10599-2 0 7774
2 21655 082.5584 197.3529 0012025 290.0853 069.8975 13.17052749 60544
MET-2/21
1 22782U 93055A 13247.81741936 .00000049 00000-0 31201-4 0 8352
2 22782 082.5499 039.7281 0021755 348.8682 119.8463 13.83711053 10655
OKEAN-4
1 23317U 94066A 13247.80434521 .00000611 00000-0 69348-4 0 3148
2 23317 082.5416 335.2703 0019785 325.7847 138.0145 14.84616748 20758
NOAA-14
1 23455U 94089A 13248.46204985 -.00000034 00000-0 52217-5 0 4428
2 23455 098.7993 331.6731 0010502 127.6935 296.6499 14.13919546963715
NOAA-15
1 25338U 98030A 13248.48029552 .00000101 00000-0 61826-4 0 8622
2 25338 098.7320 238.2758 0009590 251.9178 272.7291 14.25261638796283
RESURS
1 25394U 98043A 13248.59728559 -.00000021 00000-0 88767-5 0 4625
2 25394 098.3720 220.6168 0001960 055.4626 075.3948 14.24335087787806
FENGYUN1
1 25730U 99025A 13247.83490010 .00000609 00000-0 36471-3 0 9566
2 25730 098.8852 206.3937 0025067 182.8088 237.8956 14.10630965737275
OKEAN-0
1 25860U 99039A 13247.83967153 .00000339 00000-0 58341-4 0 384
2 25860 098.0001 209.2626 0000954 127.0493 287.9314 14.74685784760092
NOAA-16
1 26536U 00055A 13248.51625075 .00000178 00000-0 11998-3 0 3510
2 26536 099.0339 302.0458 0009589 267.3509 230.1279 14.12912337667918
NOAA-17
1 27453U 02032A 13248.50712065 .00000045 00000-0 36806-4 0 2597
2 27453 098.3132 258.3306 0010459 290.8458 231.8154 14.24616188582157
NOAA-18
1 28654U 05018A 13248.52122318 .00000050 00000-0 52671-4 0 7450
2 28654 099.1098 217.9291 0013937 347.6058 117.9527 14.11859698427399
NOAA-19
1 33591U 09005A 13248.49321596 .00000163 00000-0 11422-3 0 9265
2 33591 098.9088 189.9440 0013736 198.8803 295.6088 14.11544699235829
HUBBLE
1 20580U 90037B 13248.83870258 .00001424 00000-0 88683-4 0 3254
2 20580 028.4698 104.0069 0003119 127.2079 344.7728 15.03898250 81854
ISS
1 25544U 98067A 13248.90660940 -.00001291 00000-0 -14396-4 0 5349
2 25544 051.6491 068.3467 0003667 039.9639 111.0705 15.50394915847223
CO-58
1 28895U 05043F 13247.58592162 .00000393 00000-0 88465-4 0 5647
2 28895 097.8602 099.0007 0017610 187.0754 173.0202 14.61216881418532
FALCON
1 30776U 07006E 13248.82971494 .00004050 00000-0 23769-3 0 6905
2 30776 035.4301 067.0089 0002203 288.1206 197.9279 15.11326483357626
MAST
1 31126U 07012K 13248.76937804 .00000306 00000-0 77517-4 0 8455
2 31126 097.8880 240.1211 0093852 160.6967 286.0054 14.54659619339031
CAPE1
1 31130U 07012P 13248.65507447 .00000422 00000-0 10468-3 0 8476
2 31130 097.9058 236.4034 0100831 177.1662 183.0128 14.53603310338466
COMPASS
1 32787U 08021E 13248.75609723 .00001385 00000-0 16493-3 0 7211
2 32787 097.7441 305.2127 0015165 044.6737 315.5698 14.85823832289921
AAUSAT2
1 32788U 08021F 13247.72910543 .00001727 00000-0 20189-3 0 7030
2 32788 097.7451 304.9082 0014734 047.3378 312.9077 14.86306999289812
DO-64
1 32789U 08021G 13248.77226397 .00002909 00000-0 31317-3 0 7357
2 32789 097.7608 310.1921 0013840 036.2293 104.7645 14.89177622290113
